Date String (YYYY-MM-DD hh:mm:ss) UTC,Instrument flags,Ambient pressure (hPa),Sample flow (lpm),Bypass flow (lpm),Sample temperature (°C),Ambient temperature (°C),ASC tube jacket temperature (°C),LED temperature (°C),Box temperature (°C),Sample RH (%),Span deviation,Mass concentration (μg/m³),Mass concentration (μg/m³),Mass concentration (μg/m³)
DateTimeUTC,F1_M11,P_M11,Q1_M11,Q2_M11,T1_M11,T2_M11,T3_M11,T4_M11,T5_M11,U1_M11,ZSPAN_M11,X0_M11,X2_M11,X1_M11
2023-03-03 17:00:00,,0815.0,5.00,0.00,22.5,21.3,00.0,31.1,24.4,13.5,-001.4,0018.04,0011.75,0011.16
2023-03-03 17:01:00,,0815.0,5.00,0.00,22.5,21.3,00.0,31.1,24.3,13.8,-001.3,0017.50,0011.64,0011.04
2023-03-03 17:02:00,,0814.9,5.00,0.00,22.5,21.3,00.0,31.2,24.4,13.6,-001.3,0017.31,0011.45,0010.89
2023-03-03 17:03:00,,0814.9,5.00,0.00,22.5,21.3,00.0,31.2,24.4,12.9,-001.6,0016.96,0011.17,0010.64
2023-03-03 17:04:00,,0814.9,5.00,0.00,22.5,21.3,00.0,31.2,24.4,12.3,-001.7,0016.74,0010.84,0010.32
2023-03-03 17:05:00,,0814.9,5.01,0.00,22.5,21.3,00.0,31.2,24.4,12.4,-001.5,0016.58,0010.58,0010.06
2023-03-03 17:06:00,,0814.9,5.00,0.00,22.5,21.3,00.0,31.2,24.4,12.4,-001.4,0016.18,0010.33,0009.83
2023-03-03 17:07:00,,0814.9,5.00,0.00,22.5,21.3,00.0,31.2,24.4,12.6,-001.4,0015.82,0010.01,0009.52
2023-03-03 17:08:00,,0814.8,5.00,0.00,22.5,21.3,00.0,31.2,24.4,12.4,-001.7,0015.14,0009.65,0009.17
2023-03-03 17:09:00,,0814.9,4.99,0.00,22.5,21.4,00.0,31.2,24.4,12.4,-001.5,0014.51,0009.34,0008.85
2023-03-03 17:10:00,,0814.9,5.02,0.00,22.6,22.0,00.0,31.2,24.6,12.6,-001.5,0014.09,0009.21,0008.74
2023-03-03 17:11:00,,0814.9,5.00,0.00,22.7,22.9,00.0,31.2,24.9,12.5,-001.6,0013.82,0009.03,0008.56
2023-03-03 17:12:00,,0814.9,4.97,0.00,22.8,22.9,00.0,31.3,24.9,12.3,-002.0,0013.54,0008.81,0008.37
2023-03-03 17:13:00,,0814.9,5.01,0.00,22.8,22.6,00.0,31.3,24.8,12.4,-002.4,0013.36,0008.64,0008.23
2023-03-03 17:14:00,,0814.9,5.01,0.00,22.8,22.4,00.0,31.3,24.8,12.2,-002.4,0013.31,0008.62,0008.20
2023-03-03 17:15:00,,0814.9,5.00,0.00,22.8,22.2,00.0,31.3,24.8,12.5,-001.9,0013.41,0008.72,0008.30
2023-03-03 17:16:00,,0814.9,5.01,0.00,22.8,22.1,00.0,31.4,24.7,12.9,-002.4,0013.51,0008.90,0008.45
2023-03-03 17:17:00,,0814.9,5.00,0.00,22.8,22.0,00.0,31.4,24.7,13.1,-002.6,0013.67,0009.07,0008.65
2023-03-03 17:18:00,,0814.9,5.00,0.00,22.8,21.9,00.0,31.4,24.7,12.9,-002.3,0013.91,0009.23,0008.81
2023-03-03 17:19:00,,0814.9,4.99,0.00,22.9,21.9,00.0,31.4,24.7,13.0,-001.4,0014.70,0009.47,0009.02
2023-03-03 17:20:00,,0814.9,5.00,0.00,22.9,21.9,00.0,31.5,24.7,13.3,-001.0,0015.14,0009.76,0009.31
2023-03-03 17:21:00,,0814.9,4.99,0.00,22.9,21.9,00.0,31.5,24.8,13.5,-000.7,0015.53,0010.00,0009.54
2023-03-03 17:22:00,,0814.9,5.00,0.00,22.9,21.9,00.0,31.5,24.8,13.6,-000.4,0015.88,0010.23,0009.76
2023-03-03 17:23:00,,0814.9,5.01,0.00,22.9,21.9,00.0,31.5,24.8,13.4,-000.1,0016.05,0010.40,0009.95
2023-03-03 17:24:00,,0814.9,5.00,0.00,22.9,21.9,00.0,31.5,24.8,13.1,0000.1,0016.42,0010.51,0010.06
2023-03-03 17:25:00,,0814.9,5.01,0.00,22.9,21.9,00.0,31.5,24.8,13.0,0000.1,0016.43,0010.58,0010.17
2023-03-03 17:26:00,,0814.9,4.99,0.00,22.9,21.9,00.0,31.5,24.7,12.4,-000.2,0016.30,0010.57,0010.16
2023-03-03 17:27:00,,0814.8,5.00,0.00,22.9,21.9,00.0,31.5,24.8,12.8,0000.3,0016.13,0010.50,0010.09
2023-03-03 17:28:00,,0814.8,4.98,0.00,22.9,21.8,00.0,31.5,24.7,13.2,0000.3,0016.08,0010.41,0010.00
2023-03-03 17:29:00,,0814.9,5.00,0.00,22.9,21.7,00.0,31.6,24.7,12.6,0000.3,0015.77,0010.23,0009.85
2023-03-03 17:30:00,,0815.1,5.01,0.00,22.9,21.6,00.0,31.6,24.7,12.2,0000.1,0014.97,0009.97,0009.62
2023-03-03 17:31:00,,0814.7,5.00,0.00,22.9,21.5,00.0,31.6,24.7,12.2,-000.1,0014.72,0009.73,0009.36
2023-03-03 17:32:00,,0814.8,5.01,0.00,22.9,21.5,00.0,31.6,24.7,12.7,-000.4,0014.38,0009.50,0009.12
2023-03-03 17:33:00,,0815.1,4.99,0.00,22.8,21.4,00.0,31.6,24.7,13.1,-000.7,0014.11,0009.34,0008.96
2023-03-03 17:34:00,,0815.1,4.98,0.00,22.8,21.4,00.0,31.6,24.6,13.3,-000.9,0014.11,0009.26,0008.86
2023-03-03 17:35:00,,0815.1,5.01,0.00,22.8,21.4,00.0,31.5,24.6,13.0,-001.0,0013.80,0009.14,0008.74
2023-03-03 17:36:00,,0815.1,5.01,0.00,22.8,21.4,00.0,31.5,24.6,12.7,-000.8,0013.65,0008.98,0008.57
2023-03-03 17:37:00,,0815.0,5.00,0.00,22.8,21.5,00.0,31.5,24.6,12.7,-000.8,0013.56,0008.91,0008.49
2023-03-03 17:38:00,,0815.0,5.00,0.00,22.8,21.5,00.0,31.5,24.6,12.3,-000.9,0013.08,0008.75,0008.33
2023-03-03 17:39:00,,0815.0,5.00,0.00,22.8,21.5,00.0,31.5,24.6,12.6,-001.0,0012.83,0008.59,0008.18
2023-03-03 17:40:00,,0815.1,5.00,0.00,22.8,21.4,00.0,31.5,24.6,12.6,-001.3,0012.82,0008.55,0008.10
2023-03-03 17:41:00,,0814.9,5.00,0.00,22.8,21.4,00.0,31.5,24.6,13.1,-001.5,0012.96,0008.60,0008.13
2023-03-03 17:42:00,,0814.9,5.01,0.00,22.8,21.3,00.0,31.5,24.6,13.2,-001.1,0012.96,0008.66,0008.21
2023-03-03 17:43:00,,0814.7,5.00,0.00,22.8,21.3,00.0,31.5,24.6,13.1,-000.9,0012.88,0008.69,0008.27
2023-03-03 17:44:00,,0815.0,5.00,0.00,22.8,21.4,00.0,31.5,24.6,13.3,-000.9,0012.91,0008.69,0008.29
2023-03-03 17:45:00,,0814.8,5.01,0.00,22.8,21.3,00.0,31.5,24.6,13.2,-000.8,0012.99,0008.70,0008.31
2023-03-03 17:46:00,,0814.8,5.00,0.00,22.7,21.1,00.0,31.5,24.5,13.1,-000.9,0012.78,0008.77,0008.38
2023-03-03 17:47:00,,0814.8,4.97,0.00,22.7,21.0,00.0,31.5,24.5,13.3,-001.0,0013.18,0008.94,0008.54
2023-03-03 17:48:00,,0815.1,5.00,0.00,22.7,20.9,00.0,31.5,24.5,13.3,-000.9,0013.70,0009.11,0008.71
2023-03-03 17:49:00,,0814.6,5.01,0.00,22.7,20.8,00.0,31.5,24.4,13.4,-001.0,0014.95,0009.39,0008.98
2023-03-03 17:50:00,,0814.7,5.00,0.00,22.7,20.8,00.0,31.5,24.4,13.6,-001.3,0015.35,0009.71,0009.28
2023-03-03 17:51:00,,0814.7,5.00,0.00,22.6,20.7,00.0,31.5,24.3,14.1,-001.2,0015.78,0010.02,0009.57
2023-03-03 17:52:00,,0815.1,4.99,0.00,22.6,20.7,00.0,31.4,24.4,13.8,-001.1,0016.03,0010.24,0009.79
2023-03-03 17:53:00,,0815.2,5.00,0.00,22.6,20.7,00.0,31.4,24.3,13.3,-001.4,0016.34,0010.39,0009.92
2023-03-03 17:54:00,,0815.2,5.01,0.00,22.6,20.7,00.0,31.4,24.3,13.2,-001.5,0016.57,0010.46,0009.98
2023-03-03 17:55:00,,0814.8,5.00,0.00,22.6,20.6,00.0,31.4,24.3,13.2,-001.6,0016.53,0010.48,0010.00
2023-03-03 17:56:00,,0814.8,5.00,0.00,22.5,20.6,00.0,31.4,24.3,13.2,-001.8,0017.11,0010.48,0009.98
2023-03-03 17:57:00,,0814.7,5.00,0.00,22.5,20.6,00.0,31.4,24.2,13.0,-001.6,0017.23,0010.45,0009.93
2023-03-03 17:58:00,,0815.0,4.96,0.00,22.5,20.5,00.0,31.3,24.2,13.0,-001.7,0017.10,0010.39,0009.86
2023-03-03 17:59:00,,0815.1,4.99,0.00,22.4,20.5,00.0,31.3,24.1,12.8,-001.7,0016.72,0010.33,0009.76
